Location: ??????
(41.3164°N, 22.6615°E)
Time: 03:40:41
(UTC+00:00)

UWE-3 - Pass Details

Date: 30 June 2022
Orbit: 583 x 677 km, 97.7° (Epoch: 07 August)

Event Time Altitude Azimuth Distance (km) Brightness Sun altitude
Rises 01:52:02 0° 13° (NNE) 2,884 ? -10.7°
Reaches altitude 10° 01:54:11 10° 14° (NNE) 1,989 ? -10.4°
Maximum altitude 01:58:31 82° 101° (E) 642 ? -9.8°
Drops below altitude 10° 02:02:58 10° 191° (S) 2,032 ? -9.2°
Enters shadow 02:03:49 - 191° (S) 2,384 ? -9.1°
